Location: Cerbedi�res
(48.2182°N, 1.4849°W)
Time: 03:47:53
(UTC+00:00)

CSL-04 Rocket - Pass Details

Date: 03 March 2021
Orbit: 805 x 861 km, 98.9° (Epoch: 17 April)

Event Time Altitude Azimuth Distance (km) Brightness Sun altitude
Rises 18:22:43 0° 141° (SE) 3,426 6.5 -5.7°
Reaches altitude 10° 18:25:11 10° 135° (SE) 2,491 5.8 -6.1°
Maximum altitude 18:30:22 42° 66° (ENE) 1,199 4.1 -7.0°
Drops below altitude 10° 18:35:32 10° 357° (N) 2,485 6.2 -7.8°
Sets 18:37:59 0° 351° (N) 3,416 7.0 -8.2°
